Weather History for Newcastle, WY

Change the Weather History Date:

Thursday, October 10, 2013

  Actual Average (KCUT) Record (KCUT)
Temperature  
Mean Temperature 47 °F 44 °F  
Max Temperature 59 °F 56 °F 82 °F (1947)
Min Temperature 35 °F 32 °F 16 °F (1958)
Degree Days  
Heating Degree Days 18 21  
Month to date heating degree days 192  
Since 1 July heating degree days 678  
Cooling Degree Days 0 0  
Month to date cooling degree days 0  
Year to date cooling degree days 177  
Moisture  
Dew Point 38 °F    
Average Humidity 75    
Maximum Humidity 87    
Minimum Humidity 55    
Precipitation  
Precipitation 0.00 in 0.05 in 1.18 in (1932)
Month to date precipitation 0.61  
Year to date precipitation 17.10  
Sea Level Pressure  
Sea Level Pressure 29.75 in    
Wind  
Wind Speed 5 mph (SE)    
Max Wind Speed 16 mph    
Max Gust Speed 22 mph    
T = Trace of Precipitation, MM = Missing Value Source: NWS Daily Summary

Daily Weather History Graph

Daily Weather History Graph

Search for Another Location

Airport:

Trip Planner

Search our weather history database for the weather conditions in past years. The results will help you decide how hot, cold, wet, or windy it might be!

Date:

Astronomy

Oct. 10, 2013 Rise Set
Actual Time 7:05 AM MDT 6:21 PM MDT
Civil Twilight 6:37 AM MDT 6:50 PM MDT
Nautical Twilight 6:03 AM MDT 7:23 PM MDT
Astronomical Twilight 5:30 AM MDT 7:57 PM MDT
Moon 1:07 PM MDT (10/10) 10:55 PM MDT (10/10)
Length of Visible Light 12h 13m
Length of Day
11h 15m
Waxing Crescent, 36% of the Moon is Illuminated
Oct 10
Waxing Crescent
Oct 11
First Quarter
Oct 18
Full
Oct 26
Last Quarter
Nov 3
New

Hourly Weather History & Observations

Time (MDT) Temp. Windchill Dew Point Humidity Pressure Visibility Wind Dir Wind Speed Gust Speed Precip Events Conditions
12:15 AM 37.4 °F - 32.0 °F 81% 29.97 in - Calm Calm - N/A   Clear
12:35 AM 37.4 °F - 32.0 °F 81% 29.96 in - North - - N/A   Clear
12:55 AM 37.4 °F - 33.8 °F 87% 29.95 in - Calm Calm - N/A   Unknown
1:15 AM 39.2 °F 35.9 °F 33.8 °F 81% 29.95 in - ESE 4.6 mph - N/A   Clear
1:35 AM 37.4 °F 31.4 °F 33.8 °F 87% 29.93 in - East 8.1 mph - N/A   Clear
1:55 AM 37.4 °F 31.4 °F 33.8 °F 87% 29.94 in - West 8.1 mph - N/A   Clear
2:15 AM 35.6 °F 32.8 °F 32.0 °F 87% 29.95 in - NE 3.5 mph - N/A   Unknown
2:35 AM 37.4 °F 33.8 °F 32.0 °F 81% 29.93 in - NE 4.6 mph - N/A   Clear
2:55 AM 41.0 °F - 32.0 °F 70% 29.93 in - Calm Calm - N/A   Clear
3:35 AM 37.4 °F 34.9 °F 32.0 °F 81% 29.91 in - ESE 3.5 mph - N/A   Clear
3:55 AM 37.4 °F 32.1 °F 32.0 °F 81% 29.91 in - SE 6.9 mph - N/A   Clear
4:15 AM 35.6 °F 31.7 °F 32.0 °F 87% 29.90 in - ESE 4.6 mph - N/A   Clear
4:35 AM 37.4 °F - 32.0 °F 81% 29.90 in - Calm Calm - N/A   Clear
4:55 AM 37.4 °F 34.9 °F 32.0 °F 81% 29.89 in - ESE 3.5 mph - N/A   Clear
5:15 AM 35.6 °F - 32.0 °F 87% 29.89 in - Calm Calm - N/A   Unknown
5:35 AM 37.4 °F 34.9 °F 33.8 °F 87% 29.88 in - ESE 3.5 mph - N/A   Unknown
5:55 AM 39.2 °F 35.9 °F 32.0 °F 75% 29.87 in - ESE 4.6 mph - N/A   Clear
6:15 AM 37.4 °F 34.9 °F 33.8 °F 87% 29.87 in - SW 3.5 mph - N/A   Unknown
6:35 AM 37.4 °F 33.8 °F 33.8 °F 87% 29.87 in - South 4.6 mph - N/A   Unknown
6:55 AM 37.4 °F 32.1 °F 33.8 °F 87% 29.85 in - SE 6.9 mph - N/A   Unknown
7:15 AM 41.0 °F 35.8 °F 33.8 °F 76% 29.84 in - SE 8.1 mph - N/A   Clear
7:35 AM 41.0 °F 36.4 °F 33.8 °F 76% 29.84 in - South 6.9 mph - N/A   Clear
7:55 AM 37.4 °F - 33.8 °F 87% 29.84 in - Calm Calm - N/A   Unknown
8:15 AM 39.2 °F - 35.6 °F 87% 29.84 in - Calm Calm - N/A   Unknown
8:35 AM 41.0 °F - 35.6 °F 81% 29.84 in - Calm Calm - N/A   Clear
8:55 AM 42.8 °F 40.1 °F 33.8 °F 70% 29.84 in - SSE 4.6 mph - N/A   Clear
9:15 AM 42.8 °F 40.1 °F 33.8 °F 70% 29.82 in - ESE 4.6 mph - N/A   Clear
9:35 AM 42.8 °F 39.3 °F 33.8 °F 70% 29.81 in - South 5.8 mph - N/A   Clear
9:55 AM 44.6 °F 43.1 °F 35.6 °F 71% 29.80 in - SSE 3.5 mph - N/A   Clear
10:15 AM 44.6 °F 41.4 °F 35.6 °F 71% 29.81 in - SSE 5.8 mph - N/A   Clear
10:35 AM 46.4 °F 42.9 °F 37.4 °F 71% 29.81 in - South 6.9 mph - N/A   Clear
10:55 AM 46.4 °F 42.9 °F 37.4 °F 71% 29.81 in - SSE 6.9 mph - N/A   Clear
11:15 AM 48.2 °F - 37.4 °F 66% 29.79 in - ESE 4.6 mph - N/A   Clear
11:35 AM 50.0 °F - 39.2 °F 66% 29.78 in - SSE 6.9 mph - N/A   Clear
11:55 AM 51.8 °F - 41.0 °F 67% 29.78 in - SSE 10.4 mph - N/A   Clear
12:15 PM 53.6 °F - 41.0 °F 62% 29.78 in - SSE 12.7 mph - N/A   Clear
12:35 PM 53.6 °F - 42.8 °F 67% 29.76 in - SSE 12.7 mph 17.3 mph N/A   Clear
12:55 PM 55.4 °F - 42.8 °F 63% 29.74 in - SSE 10.4 mph 16.1 mph N/A   Clear
1:15 PM 55.4 °F - 42.8 °F 63% 29.72 in - SSE 10.4 mph - N/A   Clear
1:35 PM 55.4 °F - 42.8 °F 63% 29.70 in - SE 9.2 mph - N/A   Clear
1:55 PM 57.2 °F - 42.8 °F 59% 29.69 in - SE 5.8 mph - N/A   Clear
2:15 PM 59.0 °F - 42.8 °F 55% 29.68 in - SSE 12.7 mph - N/A   Clear
2:35 PM 59.0 °F - 42.8 °F 55% 29.66 in - SSE 13.8 mph - N/A   Clear
2:55 PM 59.0 °F - 42.8 °F 55% 29.66 in - South 13.8 mph 20.7 mph N/A   Clear
3:15 PM 59.0 °F - 42.8 °F 55% 29.66 in - SSE 16.1 mph 21.9 mph N/A   Clear
3:35 PM 57.2 °F - 42.8 °F 59% 29.66 in - SSE 13.8 mph - N/A   Clear
3:55 PM 57.2 °F - 42.8 °F 59% 29.67 in - South 13.8 mph - N/A   Clear
4:15 PM 55.4 °F - 42.8 °F 63% 29.67 in - SSE 10.4 mph - N/A   Clear
4:35 PM 55.4 °F - 42.8 °F 63% 29.67 in - SSE 10.4 mph - N/A   Clear
4:55 PM 55.4 °F - 42.8 °F 63% 29.67 in - SSE 9.2 mph - N/A   Clear
5:15 PM 55.4 °F - 42.8 °F 63% 29.67 in - South 6.9 mph - N/A   Clear
5:35 PM 53.6 °F - 42.8 °F 67% 29.67 in - SSE 5.8 mph - N/A   Clear
5:55 PM 53.6 °F - 42.8 °F 67% 29.67 in - Calm Calm - N/A   Clear
6:15 PM 53.6 °F - 44.6 °F 72% 29.65 in - East 3.5 mph - N/A   Clear
6:35 PM 51.8 °F - 42.8 °F 71% 29.65 in - Calm Calm - N/A   Clear
6:55 PM 51.8 °F - 42.8 °F 71% 29.64 in - NW 3.5 mph - N/A   Clear
7:15 PM 50.0 °F - 42.8 °F 76% 29.64 in - Calm Calm - N/A   Clear
7:35 PM 50.0 °F - 42.8 °F 76% 29.63 in - Calm Calm - N/A   Clear
7:55 PM 50.0 °F - 42.8 °F 76% 29.63 in - North 3.5 mph - N/A   Clear
8:15 PM 46.4 °F 45.2 °F 42.8 °F 87% 29.63 in - NE 3.5 mph - N/A   Clear
8:35 PM 46.4 °F 43.5 °F 42.8 °F 87% 29.61 in - NE 5.8 mph - N/A   Clear
8:55 PM 48.2 °F - 42.8 °F 82% 29.59 in - North 8.1 mph - N/A   Clear
9:15 PM 48.2 °F - 42.8 °F 82% 29.56 in - North 10.4 mph - N/A   Clear
9:35 PM 48.2 °F - 42.8 °F 82% 29.58 in - NNE 3.5 mph - N/A   Clear
9:55 PM 46.4 °F 44.3 °F 42.8 °F 87% 29.60 in - West 4.6 mph - N/A   Unknown
10:15 PM 46.4 °F 42.9 °F 42.8 °F 87% 29.59 in - NW 6.9 mph - N/A   Scattered Clouds
10:35 PM 46.4 °F 43.5 °F 42.8 °F 87% 29.56 in - NW 5.8 mph - N/A   Scattered Clouds
10:55 PM 46.4 °F 43.5 °F 42.8 °F 87% 29.55 in - NNW 5.8 mph - N/A   Unknown
11:15 PM 48.2 °F - 41.0 °F 76% 29.54 in - NNW 5.8 mph - N/A   Scattered Clouds
11:35 PM 46.4 °F 43.5 °F 41.0 °F 81% 29.52 in - NNW 5.8 mph - N/A   Scattered Clouds
11:55 PM 46.4 °F 42.4 °F 41.0 °F 81% 29.52 in - North 8.1 mph - N/A   Scattered Clouds